Regional Weather Roundup
Issued by NWS Mt. Holly, NJ

Home | Current Version | Previous Version | Text Only | Print | Product List | Glossary On
Versions: 1 2 3 4 5 6 7 8 9 10 11 12 13 14 15 16 17 18 19 20 21 22 23 24 25 26 27 28
000
ASUS41 KPHI 290612
RWRPHI

REGIONAL WEATHER ROUNDUP
NATIONAL WEATHER SERVICE MOUNT HOLLY NJ
200 AM EDT FRI APR 29 2016

NOTE:  "FAIR" INDICATES FEW OR NO CLOUDS BELOW 12,000 FEET WITH NO
SIGNIFICANT WEATHER AND/OR OBSTRUCTIONS TO VISIBILITY.

 * = STATION DOES NOT REPORT PRECIPITATION (E.G. RAIN, SNOW, ETC.)
        OR FOG.

NJZ015>026-290700-
SOUTHERN NEW JERSEY

CITY           SKY/WX    TMP DP  RH WIND       PRES   REMARKS
POMONA         CLOUDY    46  44  93 NE9       30.01F FOG
6HR MIN TEMP:  45; 6HR MAX TEMP:  47; 6HR PCP: TRACE;

WILDWOOD*      CLOUDY   N/A N/A N/A NE12      29.99S
MILLVILLE      CLOUDY    45  43  93 NE6       30.01F
WRIGHTSTOWN    CLOUDY    43  42  95 N7        30.02F
MOUNT HOLLY    CLOUDY    43  41  93 NE5       30.03F
TRENTON        CLOUDY    44  41  89 NE5       30.04F
6HR MIN TEMP:  42; 6HR MAX TEMP:  45; 6HR PCP:  0.01;


$$
NJZ001>014-290700-
NORTHERN NEW JERSEY

CITY           SKY/WX    TMP DP  RH WIND       PRES   REMARKS
SUSSEX         CLOUDY    47  43  86 CALM      30.04F
ANDOVER*         N/A     46  41  82 CALM      30.03F
MORRISTOWN     CLOUDY    46  39  76 CALM      30.05F
NEWARK         CLOUDY    49  37  63 VRB3      30.05F
TETERBORO      CLOUDY    49  37  63 CALM      30.04F
CALDWELL       CLOUDY    47  39  74 CALM      30.05S
SOMERVILLE     CLOUDY    46  40  79 CALM      30.03F
ALLAIRE*       CLOUDY    44  43  96 N6        30.05F
TOMS RIVER*    CLOUDY    43  39  87 N5        30.04F

$$
PAZ043-044-047-054-055-060>062-066>071-290700-
EASTERN PENNSYLVANIA

CITY           SKY/WX    TMP DP  RH WIND       PRES   REMARKS
PHILADELPHIA   CLOUDY    45  41  86 NE8       30.03F FOG
6HR MIN TEMP:  45; 6HR MAX TEMP:  45; 6HR PCP:  0.01;

NORTH PHILA    CLOUDY    46  42  86 NE6       30.05F
BLUE BELL*     CLOUDY    41  41 100 CALM      30.03S
DOYLESTOWN     CLOUDY    42  42 100 NE3       30.04R
QUAKERTOWN*    CLOUDY    43  41  93 CALM      30.04F
PERKASIE*      CLOUDY    41  41 100 NE5       30.04F
POTTSTOWN      CLOUDY    42  42 100 NE3       30.05S FOG
LANCASTER      LGT RAIN  44  43  96 NE3       30.02F FOG
COATESVILLE    LGT RAIN  43  43 100 CALM      30.02F
READING        CLOUDY    44  40  85 E5        30.03S
6HR MIN TEMP:  44; 6HR MAX TEMP:  45; 6HR PCP:  0.01;

ALLENTOWN      CLOUDY    46  41  82 SE3       30.03F
6HR MIN TEMP:  45; 6HR MAX TEMP:  47; 6HR PCP: TRACE;

MOUNT POCONO   CLOUDY    42  40  92 CALM      30.00F
6HR MIN TEMP:  41; 6HR MAX TEMP:  44; 6HR PCP:  0.03;

HAZLETON       CLOUDY    45  41  87 CALM      30.03S
LEHIGHTON      CLOUDY    45  43  93 CALM      30.04S FOG
WILKES BARRE   CLOUDY    45  43  93 CALM      30.01F

$$
DEZALL-MDZ008-012-015-019-020-290700-
DELAWARE AND EASTERN MARYLAND

CITY           SKY/WX    TMP DP  RH WIND       PRES   REMARKS
WILMINGTON     CLOUDY    45  43  93 NE8       30.03F FOG
6HR MIN TEMP:  45; 6HR MAX TEMP:  47;

DOVER          CLOUDY    47  47 100 NE5       30.00S
GEORGETOWN     CLOUDY    49  48  97 E7        30.00R FOG
6HR MIN TEMP:  48; 6HR MAX TEMP:  49;

EASTON         CLOUDY   N/A N/A N/A E5        30.04S
PATUXENT       DRIZZLE   50  48  93 NE7       29.98F FOG
OCEAN CITY     CLOUDY    50  48  93 NE8       29.99R
WALLOPS ISLAND CLOUDY    51  50  96 NE12      29.97F FOG
CAMBRIDGE      CLOUDY    46  46 100 E3        29.99S
SALISBURY      CLOUDY    49  49 100 CALM      30.00R FOG

$$
PAZ001-021-NYZ056-072-MDZ011-DCZ001-290700-
OTHER NEARBY LOCATIONS

CITY           SKY/WX    TMP DP  RH WIND       PRES   REMARKS
HARRISBURG     DRIZZLE   45  42  89 E5        30.01F FOG
STATE COLLEGE  CLOUDY    42  42  97 N3        29.99F FOG
WILLIAMSPORT   LGT RAIN  46  43  89 NE5       30.02S
BINGHAMTON     LGT RAIN  43  34  70 CALM      30.00F
NEW YORK CITY  CLOUDY    49  39  68 CALM      30.07F
BALTIMORE      CLOUDY    47  43  86 NE6       30.01F
WASHINGTON DC  CLOUDY    48  45  89 NE8       30.01S

$$




USA.gov is the U.S. government's official web portal to all federal, state and local government web resources and services.